Location: Pitton
(51.0667°N, 1.7000°W)
Time: 08:30:34
(UTC+00:00)

Cosmos 1536 Rocket - Pass Details

Date: 17 September 2019
Orbit: 604 x 633 km, 82.5° (Epoch: 19 October)

Event Time Altitude Azimuth Distance (km) Brightness Sun altitude
Rises 18:59:24 0° 348° (NNW) 2,881 7.3 -7.4°
Reaches altitude 10° 19:01:38 10° 347° (NNW) 1,969 6.5 -7.7°
Maximum altitude 19:05:59 75° 263° (W) 633 3.8 -8.4°
Drops below altitude 10° 19:10:17 10° 178° (S) 1,949 5.9 -9.0°
Sets 19:12:29 0° 176° (S) 2,849 6.8 -9.4°
